Flag for U.S.A. Weather past 2 weeks in Billings, Montana, U.S.A.

Now
68 °F

Clear.


Feels Like: 68 °F
Forecast: 54 / 85 °F
Wind: 5 mph from Northeast

Location: Billings Logan International Airport

Current Time: Jul 25, 2014 at 1:03:53 AM

Latest Report: Jul 24, 2014 at 11:53 PM


Visibility: 10 mi

Pressure: 29.87 "Hg

Humidity: 30%

Dew point: 35 °F

Location of BillingsLocation

Historic Weather in Billings — Graph

°F

Billings temperature yesterday

Maximum temperature yesterday: 99 °F (at 2:53 PM)
Minimum temperature yesterday: 68 °F (at 5:53 AM)
Average temperature yesterday: 80 °F

Past Weeks' High & Low Weather Summary

 TemperatureHumidityPressure
High99 °F (Jul 24, 2:53 PM)100% (Jul 12, 5:53 AM)30.27 "Hg (Jul 12, 5:53 AM)
Low17 °F (Jul 12, 5:53 AM)9% (Jul 24, 3:53 PM)29.62 "Hg (Jul 24, 2:53 PM)
Average74 °F44%29.91 "Hg
* Reported Jul 9 11:53 PM — Jul 24 11:53 PM, Billings, Weather by CustomWeather, © 2014

Note: Actual official high and low records may vary slightly from our data, if they occured in-between our weather recording intervals... More about our weather records

Advertising

Billings weather history for previous 24 hours

 ConditionsComfort  
Time TempWeatherWind HumidityBarometerVisibility
11:53 PM
Jul 24
68 °FClear.5 mph30%29.87 "Hg10 mi
10:53 PM73 °FClear.12 mph25%29.83 "Hg10 mi
9:53 PM74 °FClear.9 mph25%29.82 "Hg10 mi
8:53 PM77 °FSunny.13 mph24%29.77 "Hg10 mi
7:53 PM81 °FSunny.17 mph25%29.73 "Hg10 mi
6:53 PM85 °FSunny.21 mph25%29.70 "Hg10 mi
5:53 PM89 °FPassing clouds.24 mph22%29.68 "Hg10 mi
4:53 PM93 °FPassing clouds.31 mph18%29.65 "Hg10 mi
3:53 PM97 °FScattered clouds.30 mph9%29.63 "Hg10 mi
2:53 PM99 °FScattered clouds.24 mph11%29.62 "Hg10 mi
1:53 PM95 °FPassing clouds.9 mph24%29.63 "Hg10 mi
12:53 PM89 °FPassing clouds.5 mph28%29.65 "Hg10 mi
11:53 AM85 °FPassing clouds.No wind43%29.68 "Hg10 mi
10:53 AM82 °FPassing clouds.No wind46%29.70 "Hg10 mi
9:53 AM77 °FPassing clouds.3 mph54%29.73 "Hg10 mi
8:53 AM73 °FPassing clouds.7 mph62%29.75 "Hg10 mi
7:53 AM70 °FScattered clouds.3 mph68%29.75 "Hg10 mi
6:53 AM69 °FScattered clouds.12 mph61%29.73 "Hg10 mi
5:53 AM68 °FPassing clouds.10 mph70%29.72 "Hg10 mi
4:53 AM69 °FPassing clouds.12 mph73%29.70 "Hg10 mi
3:53 AM69 °FPassing clouds.13 mph73%29.69 "Hg10 mi
2:53 AM72 °FClear.9 mph66%29.70 "Hg10 mi
1:53 AM74 °FClear.7 mph64%29.72 "Hg10 mi
Weather by CustomWeather, © 2014

See weather overviewHow to use our weather pages